Year,Month,Day,Hour,Minute,Value (Times are PST for insolation in W/m^2)
2010,05,07,00,00,0.00
2010,05,07,00,01,0.00
2010,05,07,00,02,0.00
2010,05,07,00,03,0.00
2010,05,07,00,04,0.00
2010,05,07,00,05,0.00
2010,05,07,00,06,0.00
2010,05,07,00,07,0.00
2010,05,07,00,08,0.00
2010,05,07,00,09,0.00
2010,05,07,00,10,0.00
2010,05,07,00,11,0.00
2010,05,07,00,12,0.00
2010,05,07,00,13,0.00
2010,05,07,00,14,0.00
2010,05,07,00,15,0.00
2010,05,07,00,16,0.00
2010,05,07,00,17,0.00
2010,05,07,00,18,0.00
2010,05,07,00,19,0.00
2010,05,07,00,20,0.00
2010,05,07,00,21,0.00
2010,05,07,00,22,0.00
2010,05,07,00,23,0.00
2010,05,07,00,24,0.00
2010,05,07,00,25,0.00
2010,05,07,00,26,0.00
2010,05,07,00,27,0.00
2010,05,07,00,28,0.00
2010,05,07,00,29,0.00
2010,05,07,00,30,0.00
2010,05,07,00,31,0.00
2010,05,07,00,32,0.00
2010,05,07,00,33,0.00
2010,05,07,00,34,0.00
2010,05,07,00,35,0.00
2010,05,07,00,36,0.00
2010,05,07,00,37,0.00
2010,05,07,00,38,0.00
2010,05,07,00,39,0.00
2010,05,07,00,40,0.00
2010,05,07,00,41,0.00
2010,05,07,00,42,0.00
2010,05,07,00,43,0.00
2010,05,07,00,44,0.00
2010,05,07,00,45,0.00
2010,05,07,00,46,0.00
2010,05,07,00,47,0.00
2010,05,07,00,48,0.00
2010,05,07,00,49,0.00
2010,05,07,00,50,0.00
2010,05,07,00,51,0.00
2010,05,07,00,52,0.00
2010,05,07,00,53,0.00
2010,05,07,00,54,0.00
2010,05,07,00,55,0.00
2010,05,07,00,56,0.00
2010,05,07,00,57,0.00
2010,05,07,00,58,0.00
2010,05,07,00,59,0.00
2010,05,07,01,00,0.00
2010,05,07,01,01,0.00
2010,05,07,01,02,0.00
2010,05,07,01,03,0.00
2010,05,07,01,04,0.00
2010,05,07,01,05,0.00
2010,05,07,01,06,0.00
2010,05,07,01,07,0.00
2010,05,07,01,08,0.00
2010,05,07,01,09,0.00
2010,05,07,01,10,0.00
2010,05,07,01,11,0.00
2010,05,07,01,12,0.00
2010,05,07,01,13,0.00
2010,05,07,01,14,0.00
2010,05,07,01,15,0.00
2010,05,07,01,16,0.00
2010,05,07,01,17,0.00
2010,05,07,01,18,0.00
2010,05,07,01,19,0.00
2010,05,07,01,20,0.00
2010,05,07,01,21,0.00
2010,05,07,01,22,0.00
2010,05,07,01,23,0.00
2010,05,07,01,24,0.00
2010,05,07,01,25,0.00
2010,05,07,01,26,0.00
2010,05,07,01,27,0.00
2010,05,07,01,28,0.00
2010,05,07,01,29,0.00
2010,05,07,01,30,0.00
2010,05,07,01,31,0.00
2010,05,07,01,32,0.00
2010,05,07,01,33,0.00
2010,05,07,01,34,0.00
2010,05,07,01,35,0.00
2010,05,07,01,36,0.00
2010,05,07,01,37,0.00
2010,05,07,01,38,0.00
2010,05,07,01,39,0.00
2010,05,07,01,40,0.00
2010,05,07,01,41,0.00
2010,05,07,01,42,0.00
2010,05,07,01,43,0.00
2010,05,07,01,44,0.00
2010,05,07,01,45,0.00
2010,05,07,01,46,0.00
2010,05,07,01,47,0.00
2010,05,07,01,48,0.00
2010,05,07,01,49,0.00
2010,05,07,01,50,0.00
2010,05,07,01,51,0.00
2010,05,07,01,52,0.00
2010,05,07,01,53,0.00
2010,05,07,01,54,0.00
2010,05,07,01,55,0.00
2010,05,07,01,56,0.00
2010,05,07,01,57,0.00
2010,05,07,01,58,0.00
2010,05,07,01,59,0.00
2010,05,07,02,00,0.00
2010,05,07,02,01,0.00
2010,05,07,02,02,0.00
2010,05,07,02,03,0.00
2010,05,07,02,04,0.00
2010,05,07,02,05,0.00
2010,05,07,02,06,0.00
2010,05,07,02,07,0.00
2010,05,07,02,08,0.00
2010,05,07,02,09,0.00
2010,05,07,02,10,0.00
2010,05,07,02,11,0.00
2010,05,07,02,12,0.00
2010,05,07,02,13,0.00
2010,05,07,02,14,0.00
2010,05,07,02,15,0.00
2010,05,07,02,16,0.00
2010,05,07,02,17,0.00
2010,05,07,02,18,0.00
2010,05,07,02,19,0.00
2010,05,07,02,20,0.00
2010,05,07,02,21,0.00
2010,05,07,02,22,0.00
2010,05,07,02,23,0.00
2010,05,07,02,24,0.00
2010,05,07,02,25,0.00
2010,05,07,02,26,0.00
2010,05,07,02,27,0.00
2010,05,07,02,28,0.00
2010,05,07,02,29,0.00
2010,05,07,02,30,0.00
2010,05,07,02,31,0.00
2010,05,07,02,32,0.00
2010,05,07,02,33,0.00
2010,05,07,02,34,0.00
2010,05,07,02,35,0.00
2010,05,07,02,36,0.00
2010,05,07,02,37,0.00
2010,05,07,02,38,0.00
2010,05,07,02,39,0.00
2010,05,07,02,40,0.00
2010,05,07,02,41,0.00
2010,05,07,02,42,0.00
2010,05,07,02,43,0.00
2010,05,07,02,44,0.00
2010,05,07,02,45,0.00
2010,05,07,02,46,0.00
2010,05,07,02,47,0.00
2010,05,07,02,48,0.00
2010,05,07,02,49,0.00
2010,05,07,02,50,0.00
2010,05,07,02,51,0.00
2010,05,07,02,52,0.00
2010,05,07,02,53,0.00
2010,05,07,02,54,0.00
2010,05,07,02,55,0.00
2010,05,07,02,56,0.00
2010,05,07,02,57,0.00
2010,05,07,02,58,0.00
2010,05,07,02,59,0.00
2010,05,07,03,00,0.00
2010,05,07,03,01,0.00
2010,05,07,03,02,0.00
2010,05,07,03,03,0.00
2010,05,07,03,04,0.00
2010,05,07,03,05,0.00
2010,05,07,03,06,0.00
2010,05,07,03,07,0.00
2010,05,07,03,08,0.00
2010,05,07,03,09,0.00
2010,05,07,03,10,0.00
2010,05,07,03,11,0.00
2010,05,07,03,12,0.00
2010,05,07,03,13,0.00
2010,05,07,03,14,0.00
2010,05,07,03,15,0.00
2010,05,07,03,16,0.00
2010,05,07,03,17,0.00
2010,05,07,03,18,0.00
2010,05,07,03,19,0.00
2010,05,07,03,20,0.00
2010,05,07,03,21,0.00
2010,05,07,03,22,0.00
2010,05,07,03,23,0.00
2010,05,07,03,24,0.00
2010,05,07,03,25,0.00
2010,05,07,03,26,0.00
2010,05,07,03,27,0.00
2010,05,07,03,28,0.00
2010,05,07,03,29,0.00
2010,05,07,03,30,0.00
2010,05,07,03,31,0.00
2010,05,07,03,32,0.00
2010,05,07,03,33,0.00
2010,05,07,03,34,0.00
2010,05,07,03,35,0.00
2010,05,07,03,36,0.00
2010,05,07,03,37,0.00
2010,05,07,03,38,0.00
2010,05,07,03,39,0.00
2010,05,07,03,40,0.00
2010,05,07,03,41,0.00
2010,05,07,03,42,0.00
2010,05,07,03,43,0.00
2010,05,07,03,44,0.00
2010,05,07,03,45,0.00
2010,05,07,03,46,0.00
2010,05,07,03,47,0.00
2010,05,07,03,48,0.00
2010,05,07,03,49,0.00
2010,05,07,03,50,0.00
2010,05,07,03,51,0.00
2010,05,07,03,52,0.00
2010,05,07,03,53,0.00
2010,05,07,03,54,0.00
2010,05,07,03,55,0.00
2010,05,07,03,56,0.00
2010,05,07,03,57,0.00
2010,05,07,03,58,0.00
2010,05,07,03,59,0.00
2010,05,07,04,00,0.00
2010,05,07,04,01,0.00
2010,05,07,04,02,0.00
2010,05,07,04,03,0.00
2010,05,07,04,04,0.00
2010,05,07,04,05,0.00
2010,05,07,04,06,0.00
2010,05,07,04,07,0.00
2010,05,07,04,08,0.00
2010,05,07,04,09,0.00
2010,05,07,04,10,0.00
2010,05,07,04,11,0.00
2010,05,07,04,12,0.00
2010,05,07,04,13,0.00
2010,05,07,04,14,0.00
2010,05,07,04,15,0.00
2010,05,07,04,16,0.00
2010,05,07,04,17,0.00
2010,05,07,04,18,0.00
2010,05,07,04,19,0.00
2010,05,07,04,20,0.00
2010,05,07,04,21,0.00
2010,05,07,04,22,0.00
2010,05,07,04,23,0.00
2010,05,07,04,24,0.00
2010,05,07,04,25,0.00
2010,05,07,04,26,0.00
2010,05,07,04,27,0.00
2010,05,07,04,28,0.00
2010,05,07,04,29,0.00
2010,05,07,04,30,0.00
2010,05,07,04,31,0.00
2010,05,07,04,32,0.00
2010,05,07,04,33,0.00
2010,05,07,04,34,0.00
2010,05,07,04,35,0.00
2010,05,07,04,36,0.00
2010,05,07,04,37,0.00
2010,05,07,04,38,0.00
2010,05,07,04,39,0.00
2010,05,07,04,40,0.00
2010,05,07,04,41,0.00
2010,05,07,04,42,0.00
2010,05,07,04,43,0.00
2010,05,07,04,44,0.00
2010,05,07,04,45,0.00
2010,05,07,04,46,0.00
2010,05,07,04,47,0.00
2010,05,07,04,48,0.00
2010,05,07,04,49,0.00
2010,05,07,04,50,0.00
2010,05,07,04,51,0.00
2010,05,07,04,52,0.00
2010,05,07,04,53,0.00
2010,05,07,04,54,0.00
2010,05,07,04,55,0.00
2010,05,07,04,56,0.00
2010,05,07,04,57,0.00
2010,05,07,04,58,0.00
2010,05,07,04,59,0.00
2010,05,07,05,00,0.00
2010,05,07,05,01,0.00
2010,05,07,05,02,0.00
2010,05,07,05,03,0.00
2010,05,07,05,04,0.00
2010,05,07,05,05,0.00
2010,05,07,05,06,0.00
2010,05,07,05,07,0.00
2010,05,07,05,08,0.00
2010,05,07,05,09,0.00
2010,05,07,05,10,0.00
2010,05,07,05,11,0.00
2010,05,07,05,12,0.00
2010,05,07,05,13,0.00
2010,05,07,05,14,0.00
2010,05,07,05,15,0.00
2010,05,07,05,16,0.00
2010,05,07,05,17,0.00
2010,05,07,05,18,0.00
2010,05,07,05,19,0.00
2010,05,07,05,20,0.00
2010,05,07,05,21,0.00
2010,05,07,05,22,0.00
2010,05,07,05,23,0.00
2010,05,07,05,24,0.00
2010,05,07,05,25,0.00
2010,05,07,05,26,0.00
2010,05,07,05,27,0.00
2010,05,07,05,28,0.00
2010,05,07,05,29,0.00
2010,05,07,05,30,0.00
2010,05,07,05,31,0.00
2010,05,07,05,32,0.00
2010,05,07,05,33,0.00
2010,05,07,05,34,0.00
2010,05,07,05,35,0.00
2010,05,07,05,36,0.00
2010,05,07,05,37,0.00
2010,05,07,05,38,0.00
2010,05,07,05,39,0.00
2010,05,07,05,40,0.00
2010,05,07,05,41,0.00
2010,05,07,05,42,0.00
2010,05,07,05,43,0.00
2010,05,07,05,44,0.00
2010,05,07,05,45,1.60
2010,05,07,05,46,5.00
2010,05,07,05,47,5.00
2010,05,07,05,48,5.00
2010,05,07,05,49,5.00
2010,05,07,05,50,6.70
2010,05,07,05,51,7.00
2010,05,07,05,52,7.00
2010,05,07,05,53,7.50
2010,05,07,05,54,9.00
2010,05,07,05,55,9.00
2010,05,07,05,56,9.00
2010,05,07,05,57,9.00
2010,05,07,05,58,10.60
2010,05,07,05,59,11.00
2010,05,07,06,00,11.00
2010,05,07,06,01,11.20
2010,05,07,06,02,12.00
2010,05,07,06,03,12.00
2010,05,07,06,04,12.00
2010,05,07,06,05,13.20
2010,05,07,06,06,14.00
2010,05,07,06,07,14.00
2010,05,07,06,08,14.00
2010,05,07,06,09,14.20
2010,05,07,06,10,16.00
2010,05,07,06,11,16.00
2010,05,07,06,12,16.00
2010,05,07,06,13,17.00
2010,05,07,06,14,18.00
2010,05,07,06,15,18.00
2010,05,07,06,16,18.00
2010,05,07,06,17,18.90
2010,05,07,06,18,19.00
2010,05,07,06,19,19.50
2010,05,07,06,20,21.00
2010,05,07,06,21,21.00
2010,05,07,06,22,22.20
2010,05,07,06,23,23.00
2010,05,07,06,24,23.00
2010,05,07,06,25,23.00
2010,05,07,06,26,25.00
2010,05,07,06,27,26.30
2010,05,07,06,28,28.60
2010,05,07,06,29,31.10
2010,05,07,06,30,36.00
2010,05,07,06,31,35.40
2010,05,07,06,32,33.00
2010,05,07,06,33,30.50
2010,05,07,06,34,33.00
2010,05,07,06,35,34.70
2010,05,07,06,36,34.30
2010,05,07,06,37,41.80
2010,05,07,06,38,47.00
2010,05,07,06,39,45.30
2010,05,07,06,40,42.80
2010,05,07,06,41,40.40
2010,05,07,06,42,41.70
2010,05,07,06,43,45.80
2010,05,07,06,44,46.00
2010,05,07,06,45,46.20
2010,05,07,06,46,48.50
2010,05,07,06,47,51.90
2010,05,07,06,48,53.00
2010,05,07,06,49,53.00
2010,05,07,06,50,53.00
2010,05,07,06,51,53.90
2010,05,07,06,52,53.00
2010,05,07,06,53,53.20
2010,05,07,06,54,55.90
2010,05,07,06,55,62.10
2010,05,07,06,56,70.50
2010,05,07,06,57,76.60
2010,05,07,06,58,69.50
2010,05,07,06,59,67.00
2010,05,07,07,00,70.20
2010,05,07,07,01,76.00
2010,05,07,07,02,76.30
2010,05,07,07,03,82.30
2010,05,07,07,04,98.60
2010,05,07,07,05,112.20
2010,05,07,07,06,123.80
2010,05,07,07,07,135.10
2010,05,07,07,08,141.50
2010,05,07,07,09,144.40
2010,05,07,07,10,148.10
2010,05,07,07,11,150.20
2010,05,07,07,12,153.70
2010,05,07,07,13,156.50
2010,05,07,07,14,158.00
2010,05,07,07,15,161.70
2010,05,07,07,16,166.20
2010,05,07,07,17,168.90
2010,05,07,07,18,169.80
2010,05,07,07,19,174.40
2010,05,07,07,20,177.10
2010,05,07,07,21,179.90
2010,05,07,07,22,183.10
2010,05,07,07,23,187.10
2010,05,07,07,24,189.50
2010,05,07,07,25,192.60
2010,05,07,07,26,197.00
2010,05,07,07,27,197.80
2010,05,07,07,28,202.50
2010,05,07,07,29,205.10
2010,05,07,07,30,208.00
2010,05,07,07,31,210.30
2010,05,07,07,32,213.10
2010,05,07,07,33,215.60
2010,05,07,07,34,217.80
2010,05,07,07,35,221.00
2010,05,07,07,36,222.20
2010,05,07,07,37,225.70
2010,05,07,07,38,226.80
2010,05,07,07,39,234.20
2010,05,07,07,40,236.60
2010,05,07,07,41,239.90
2010,05,07,07,42,243.60
2010,05,07,07,43,246.30
2010,05,07,07,44,251.30
2010,05,07,07,45,253.60
2010,05,07,07,46,255.80
2010,05,07,07,47,257.00
2010,05,07,07,48,261.10
2010,05,07,07,49,264.70
2010,05,07,07,50,266.60
2010,05,07,07,51,268.70
2010,05,07,07,52,272.40
2010,05,07,07,53,276.00
2010,05,07,07,54,277.50
2010,05,07,07,55,281.00
2010,05,07,07,56,282.80
2010,05,07,07,57,288.20
2010,05,07,07,58,290.00
2010,05,07,07,59,294.20
2010,05,07,08,00,295.40
2010,05,07,08,01,302.30
2010,05,07,08,02,304.00
2010,05,07,08,03,304.60
2010,05,07,08,04,307.20
2010,05,07,08,05,312.20
2010,05,07,08,06,315.60
2010,05,07,08,07,318.90
2010,05,07,08,08,321.80
2010,05,07,08,09,323.90
2010,05,07,08,10,309.00
2010,05,07,08,11,330.00
2010,05,07,08,12,333.30
2010,05,07,08,13,336.60
2010,05,07,08,14,336.90
2010,05,07,08,15,343.40
2010,05,07,08,16,351.00
2010,05,07,08,17,346.70
2010,05,07,08,18,350.50
2010,05,07,08,19,354.60
2010,05,07,08,20,354.20
2010,05,07,08,21,357.00
2010,05,07,08,22,359.60
2010,05,07,08,23,363.30
2010,05,07,08,24,361.10
2010,05,07,08,25,370.90
2010,05,07,08,26,374.20
2010,05,07,08,27,381.30
2010,05,07,08,28,385.90
2010,05,07,08,29,393.30
2010,05,07,08,30,393.80
2010,05,07,08,31,396.60
2010,05,07,08,32,403.00
2010,05,07,08,33,380.40
2010,05,07,08,34,404.60
2010,05,07,08,35,416.10
2010,05,07,08,36,422.80
2010,05,07,08,37,416.30
2010,05,07,08,38,431.40
2010,05,07,08,39,379.40
2010,05,07,08,40,332.00
2010,05,07,08,41,401.30
2010,05,07,08,42,431.80
2010,05,07,08,43,433.80
2010,05,07,08,44,441.70
2010,05,07,08,45,435.30
2010,05,07,08,46,405.40
2010,05,07,08,47,343.00
2010,05,07,08,48,402.60
2010,05,07,08,49,446.00
2010,05,07,08,50,465.30
2010,05,07,08,51,473.00
2010,05,07,08,52,462.80
2010,05,07,08,53,466.00
2010,05,07,08,54,466.00
2010,05,07,08,55,467.10
2010,05,07,08,56,469.90
2010,05,07,08,57,471.00
2010,05,07,08,58,476.20
2010,05,07,08,59,479.50
2010,05,07,09,00,481.80
2010,05,07,09,01,482.50
2010,05,07,09,02,486.60
2010,05,07,09,03,486.30
2010,05,07,09,04,489.40
2010,05,07,09,05,492.10
2010,05,07,09,06,497.10
2010,05,07,09,07,499.00
2010,05,07,09,08,503.20
2010,05,07,09,09,503.20
2010,05,07,09,10,506.00
2010,05,07,09,11,506.00
2010,05,07,09,12,508.80
2010,05,07,09,13,510.60
2010,05,07,09,14,513.40
2010,05,07,09,15,521.70
2010,05,07,09,16,524.00
2010,05,07,09,17,524.00
2010,05,07,09,18,526.00
2010,05,07,09,19,526.60
2010,05,07,09,20,530.60
2010,05,07,09,21,535.70
2010,05,07,09,22,538.00
2010,05,07,09,23,539.20
2010,05,07,09,24,542.20
2010,05,07,09,25,546.40
2010,05,07,09,26,548.30
2010,05,07,09,27,555.90
2010,05,07,09,28,561.80
2010,05,07,09,29,564.70
2010,05,07,09,30,569.90
2010,05,07,09,31,573.90
2010,05,07,09,32,574.30
2010,05,07,09,33,577.30
2010,05,07,09,34,578.00
2010,05,07,09,35,576.80
2010,05,07,09,36,497.80
2010,05,07,09,37,582.60
2010,05,07,09,38,584.00
2010,05,07,09,39,585.50
2010,05,07,09,40,590.00
2010,05,07,09,41,593.40
2010,05,07,09,42,595.60
2010,05,07,09,43,597.90
2010,05,07,09,44,601.00
2010,05,07,09,45,586.60
2010,05,07,09,46,554.20
2010,05,07,09,47,614.70
2010,05,07,09,48,616.00
2010,05,07,09,49,619.40
2010,05,07,09,50,628.60
2010,05,07,09,51,640.30
2010,05,07,09,52,626.80
2010,05,07,09,53,630.20
2010,05,07,09,54,653.00
2010,05,07,09,55,646.50
2010,05,07,09,56,641.30
2010,05,07,09,57,642.50
2010,05,07,09,58,646.70
2010,05,07,09,59,645.80
2010,05,07,10,00,645.00
2010,05,07,10,01,647.30
2010,05,07,10,02,651.30
2010,05,07,10,03,656.30
2010,05,07,10,04,653.80
2010,05,07,10,05,656.40
2010,05,07,10,06,661.70
2010,05,07,10,07,664.50
2010,05,07,10,08,673.30
2010,05,07,10,09,591.60
2010,05,07,10,10,676.70
2010,05,07,10,11,686.30
2010,05,07,10,12,673.00
2010,05,07,10,13,676.90
2010,05,07,10,14,686.70
2010,05,07,10,15,696.60
2010,05,07,10,16,695.30
2010,05,07,10,17,695.70
2010,05,07,10,18,700.60
2010,05,07,10,19,694.30
2010,05,07,10,20,696.50
2010,05,07,10,21,698.00
2010,05,07,10,22,698.00
2010,05,07,10,23,702.20
2010,05,07,10,24,702.10
2010,05,07,10,25,700.20
2010,05,07,10,26,704.70
2010,05,07,10,27,707.90
2010,05,07,10,28,707.00
2010,05,07,10,29,707.00
2010,05,07,10,30,707.00
2010,05,07,10,31,707.00
2010,05,07,10,32,707.00
2010,05,07,10,33,717.30
2010,05,07,10,34,721.80
2010,05,07,10,35,721.30
2010,05,07,10,36,725.70
2010,05,07,10,37,724.50
2010,05,07,10,38,726.00
2010,05,07,10,39,726.00
2010,05,07,10,40,726.00
2010,05,07,10,41,734.00
2010,05,07,10,42,738.00
2010,05,07,10,43,738.00
2010,05,07,10,44,745.60
2010,05,07,10,45,751.00
2010,05,07,10,46,750.40
2010,05,07,10,47,749.80
2010,05,07,10,48,751.00
2010,05,07,10,49,751.60
2010,05,07,10,50,754.80
2010,05,07,10,51,756.00
2010,05,07,10,52,758.70
2010,05,07,10,53,759.30
2010,05,07,10,54,762.10
2010,05,07,10,55,765.30
2010,05,07,10,56,765.60
2010,05,07,10,57,766.70
2010,05,07,10,58,770.70
2010,05,07,10,59,774.20
2010,05,07,11,00,775.00
2010,05,07,11,01,775.10
2010,05,07,11,02,777.00
2010,05,07,11,03,777.80
2010,05,07,11,04,780.80
2010,05,07,11,05,782.00
2010,05,07,11,06,783.30
2010,05,07,11,07,785.40
2010,05,07,11,08,788.50
2010,05,07,11,09,790.80
2010,05,07,11,10,795.00
2010,05,07,11,11,795.00
2010,05,07,11,12,795.30
2010,05,07,11,13,796.80
2010,05,07,11,14,799.10
2010,05,07,11,15,801.80
2010,05,07,11,16,804.40
2010,05,07,11,17,805.00
2010,05,07,11,18,808.60
2010,05,07,11,19,809.40
2010,05,07,11,20,812.00
2010,05,07,11,21,812.00
2010,05,07,11,22,812.00
2010,05,07,11,23,813.10
2010,05,07,11,24,815.40
2010,05,07,11,25,818.40
2010,05,07,11,26,819.00
2010,05,07,11,27,822.80
2010,05,07,11,28,823.20
2010,05,07,11,29,824.00
2010,05,07,11,30,826.30
2010,05,07,11,31,829.00
2010,05,07,11,32,829.20
2010,05,07,11,33,830.70
2010,05,07,11,34,831.00
2010,05,07,11,35,834.80
2010,05,07,11,36,837.10
2010,05,07,11,37,838.40
2010,05,07,11,38,840.60
2010,05,07,11,39,840.40
2010,05,07,11,40,842.40
2010,05,07,11,41,844.60
2010,05,07,11,42,845.50
2010,05,07,11,43,846.80
2010,05,07,11,44,849.10
2010,05,07,11,45,851.30
2010,05,07,11,46,853.30
2010,05,07,11,47,854.80
2010,05,07,11,48,856.00
2010,05,07,11,49,857.10
2010,05,07,11,50,859.40
2010,05,07,11,51,860.00
2010,05,07,11,52,862.70
2010,05,07,11,53,863.20
2010,05,07,11,54,865.50
2010,05,07,11,55,867.00
2010,05,07,11,56,867.40
2010,05,07,11,57,869.00
2010,05,07,11,58,870.00
2010,05,07,11,59,871.50
2010,05,07,12,00,873.60
2010,05,07,12,01,873.90
2010,05,07,12,02,872.80
2010,05,07,12,03,877.00
2010,05,07,12,04,877.00
2010,05,07,12,05,877.90
2010,05,07,12,06,880.10
2010,05,07,12,07,879.60
2010,05,07,12,08,881.20
2010,05,07,12,09,883.70
2010,05,07,12,10,884.40
2010,05,07,12,11,888.00
2010,05,07,12,12,888.00
2010,05,07,12,13,887.20
2010,05,07,12,14,887.60
2010,05,07,12,15,888.40
2010,05,07,12,16,890.20
2010,05,07,12,17,891.00
2010,05,07,12,18,889.20
2010,05,07,12,19,893.00
2010,05,07,12,20,893.00
2010,05,07,12,21,893.00
2010,05,07,12,22,895.20
2010,05,07,12,23,895.10
2010,05,07,12,24,896.20
2010,05,07,12,25,896.50
2010,05,07,12,26,896.00
2010,05,07,12,27,900.00
2010,05,07,12,28,900.00
2010,05,07,12,29,900.00
2010,05,07,12,30,900.00
2010,05,07,12,31,902.00
2010,05,07,12,32,902.80
2010,05,07,12,33,900.50
2010,05,07,12,34,901.50
2010,05,07,12,35,902.00
2010,05,07,12,36,902.30
2010,05,07,12,37,904.40
2010,05,07,12,38,903.50
2010,05,07,12,39,907.00
2010,05,07,12,40,905.90
2010,05,07,12,41,903.10
2010,05,07,12,42,904.20
2010,05,07,12,43,904.20
2010,05,07,12,44,904.00
2010,05,07,12,45,904.50
2010,05,07,12,46,906.50
2010,05,07,12,47,906.50
2010,05,07,12,48,908.10
2010,05,07,12,49,907.00
2010,05,07,12,50,909.80
2010,05,07,12,51,909.40
2010,05,07,12,52,909.00
2010,05,07,12,53,907.30
2010,05,07,12,54,908.60
2010,05,07,12,55,907.00
2010,05,07,12,56,907.00
2010,05,07,12,57,907.90
2010,05,07,12,58,910.10
2010,05,07,12,59,909.50
2010,05,07,13,00,909.00
2010,05,07,13,01,910.90
2010,05,07,13,02,908.70
2010,05,07,13,03,907.40
2010,05,07,13,04,909.70
2010,05,07,13,05,911.50
2010,05,07,13,06,913.20
2010,05,07,13,07,910.80
2010,05,07,13,08,909.00
2010,05,07,13,09,911.50
2010,05,07,13,10,912.10
2010,05,07,13,11,914.00
2010,05,07,13,12,914.00
2010,05,07,13,13,913.20
2010,05,07,13,14,913.00
2010,05,07,13,15,914.00
2010,05,07,13,16,912.60
2010,05,07,13,17,913.50
2010,05,07,13,18,912.10
2010,05,07,13,19,914.00
2010,05,07,13,20,914.00
2010,05,07,13,21,914.00
2010,05,07,13,22,913.20
2010,05,07,13,23,909.40
2010,05,07,13,24,912.70
2010,05,07,13,25,916.00
2010,05,07,13,26,916.00
2010,05,07,13,27,914.00
2010,05,07,13,28,912.00
2010,05,07,13,29,912.50
2010,05,07,13,30,913.30
2010,05,07,13,31,912.00
2010,05,07,13,32,912.00
2010,05,07,13,33,912.00
2010,05,07,13,34,912.00
2010,05,07,13,35,912.00
2010,05,07,13,36,911.10
2010,05,07,13,37,912.40
2010,05,07,13,38,913.40
2010,05,07,13,39,911.60
2010,05,07,13,40,911.00
2010,05,07,13,41,911.00
2010,05,07,13,42,908.20
2010,05,07,13,43,905.30
2010,05,07,13,44,910.70
2010,05,07,13,45,907.30
2010,05,07,13,46,908.20
2010,05,07,13,47,906.20
2010,05,07,13,48,906.80
2010,05,07,13,49,905.50
2010,05,07,13,50,908.30
2010,05,07,13,51,909.00
2010,05,07,13,52,909.00
2010,05,07,13,53,908.80
2010,05,07,13,54,905.30
2010,05,07,13,55,907.00
2010,05,07,13,56,907.00
2010,05,07,13,57,907.00
2010,05,07,13,58,905.30
2010,05,07,13,59,904.70
2010,05,07,14,00,905.00
2010,05,07,14,01,904.10
2010,05,07,14,02,904.10
2010,05,07,14,03,904.80
2010,05,07,14,04,904.00
2010,05,07,14,05,904.00
2010,05,07,14,06,904.00
2010,05,07,14,07,902.80
2010,05,07,14,08,900.60
2010,05,07,14,09,898.30
2010,05,07,14,10,899.80
2010,05,07,14,11,899.70
2010,05,07,14,12,898.50
2010,05,07,14,13,899.20
2010,05,07,14,14,897.10
2010,05,07,14,15,895.40
2010,05,07,14,16,895.00
2010,05,07,14,17,893.40
2010,05,07,14,18,895.50
2010,05,07,14,19,894.80
2010,05,07,14,20,891.00
2010,05,07,14,21,892.10
2010,05,07,14,22,894.20
2010,05,07,14,23,893.00
2010,05,07,14,24,891.90
2010,05,07,14,25,892.50
2010,05,07,14,26,889.80
2010,05,07,14,27,888.90
2010,05,07,14,28,887.80
2010,05,07,14,29,885.20
2010,05,07,14,30,882.70
2010,05,07,14,31,882.70
2010,05,07,14,32,879.90
2010,05,07,14,33,880.30
2010,05,07,14,34,879.50
2010,05,07,14,35,877.20
2010,05,07,14,36,878.90
2010,05,07,14,37,876.70
2010,05,07,14,38,875.60
2010,05,07,14,39,876.30
2010,05,07,14,40,875.00
2010,05,07,14,41,875.00
2010,05,07,14,42,872.90
2010,05,07,14,43,872.00
2010,05,07,14,44,868.40
2010,05,07,14,45,869.80
2010,05,07,14,46,867.40
2010,05,07,14,47,866.00
2010,05,07,14,48,867.60
2010,05,07,14,49,867.00
2010,05,07,14,50,864.40
2010,05,07,14,51,865.90
2010,05,07,14,52,861.90
2010,05,07,14,53,861.00
2010,05,07,14,54,860.80
2010,05,07,14,55,859.50
2010,05,07,14,56,857.30
2010,05,07,14,57,855.10
2010,05,07,14,58,854.00
2010,05,07,14,59,853.30
2010,05,07,15,00,851.40
2010,05,07,15,01,849.30
2010,05,07,15,02,848.80
2010,05,07,15,03,845.90
2010,05,07,15,04,842.00
2010,05,07,15,05,842.80
2010,05,07,15,06,843.00
2010,05,07,15,07,843.20
2010,05,07,15,08,841.20
2010,05,07,15,09,835.80
2010,05,07,15,10,835.00
2010,05,07,15,11,834.70
2010,05,07,15,12,833.00
2010,05,07,15,13,832.40
2010,05,07,15,14,829.80
2010,05,07,15,15,828.00
2010,05,07,15,16,825.20
2010,05,07,15,17,825.50
2010,05,07,15,18,823.50
2010,05,07,15,19,822.80
2010,05,07,15,20,820.70
2010,05,07,15,21,818.40
2010,05,07,15,22,817.00
2010,05,07,15,23,816.50
2010,05,07,15,24,814.90
2010,05,07,15,25,812.60
2010,05,07,15,26,810.30
2010,05,07,15,27,807.30
2010,05,07,15,28,805.00
2010,05,07,15,29,804.60
2010,05,07,15,30,802.70
2010,05,07,15,31,801.20
2010,05,07,15,32,798.90
2010,05,07,15,33,796.70
2010,05,07,15,34,795.30
2010,05,07,15,35,791.80
2010,05,07,15,36,788.90
2010,05,07,15,37,787.40
2010,05,07,15,38,784.00
2010,05,07,15,39,782.50
2010,05,07,15,40,779.50
2010,05,07,15,41,779.00
2010,05,07,15,42,776.30
2010,05,07,15,43,773.50
2010,05,07,15,44,773.00
2010,05,07,15,45,771.80
2010,05,07,15,46,769.70
2010,05,07,15,47,767.10
2010,05,07,15,48,764.20
2010,05,07,15,49,763.00
2010,05,07,15,50,760.60
2010,05,07,15,51,759.00
2010,05,07,15,52,758.20
2010,05,07,15,53,752.30
2010,05,07,15,54,753.80
2010,05,07,15,55,751.80
2010,05,07,15,56,750.40
2010,05,07,15,57,747.20
2010,05,07,15,58,745.00
2010,05,07,15,59,744.30
2010,05,07,16,00,742.50
2010,05,07,16,01,740.20
2010,05,07,16,02,737.90
2010,05,07,16,03,736.70
2010,05,07,16,04,733.90
2010,05,07,16,05,730.30
2010,05,07,16,06,728.50
2010,05,07,16,07,726.90
2010,05,07,16,08,723.20
2010,05,07,16,09,725.20
2010,05,07,16,10,726.00
2010,05,07,16,11,716.80
2010,05,07,16,12,714.80
2010,05,07,16,13,712.70
2010,05,07,16,14,710.00
2010,05,07,16,15,708.50
2010,05,07,16,16,705.70
2010,05,07,16,17,703.40
2010,05,07,16,18,701.40
2010,05,07,16,19,699.80
2010,05,07,16,20,695.70
2010,05,07,16,21,693.80
2010,05,07,16,22,692.30
2010,05,07,16,23,690.10
2010,05,07,16,24,687.30
2010,05,07,16,25,684.60
2010,05,07,16,26,682.40
2010,05,07,16,27,679.30
2010,05,07,16,28,676.90
2010,05,07,16,29,674.20
2010,05,07,16,30,670.70
2010,05,07,16,31,669.20
2010,05,07,16,32,666.90
2010,05,07,16,33,666.00
2010,05,07,16,34,663.80
2010,05,07,16,35,659.60
2010,05,07,16,36,657.10
2010,05,07,16,37,655.40
2010,05,07,16,38,651.50
2010,05,07,16,39,648.40
2010,05,07,16,40,644.10
2010,05,07,16,41,642.50
2010,05,07,16,42,640.60
2010,05,07,16,43,637.00
2010,05,07,16,44,636.00
2010,05,07,16,45,631.20
2010,05,07,16,46,628.80
2010,05,07,16,47,627.40
2010,05,07,16,48,625.30
2010,05,07,16,49,622.60
2010,05,07,16,50,618.60
2010,05,07,16,51,615.60
2010,05,07,16,52,613.50
2010,05,07,16,53,610.20
2010,05,07,16,54,609.60
2010,05,07,16,55,606.00
2010,05,07,16,56,605.10
2010,05,07,16,57,601.30
2010,05,07,16,58,597.50
2010,05,07,16,59,594.60
2010,05,07,17,00,591.80
2010,05,07,17,01,587.60
2010,05,07,17,02,584.80
2010,05,07,17,03,581.70
2010,05,07,17,04,580.00
2010,05,07,17,05,578.90
2010,05,07,17,06,575.10
2010,05,07,17,07,573.00
2010,05,07,17,08,568.10